| time (UTC) | temp C | wind direction | speed KPH | gust KPH | rain 1hr cm | rain 24hr cm | rain mn cm | humidity % | barometer mb |
| 20260507040001 | 15 | 272 | 8.0 | 17.7 | 0.00 | 0.00 | 0.00 | 24 | 1011.7 |
| 20260507034559 | 15 | 250 | 8.0 | 20.9 | 0.00 | 0.00 | 0.00 | 23 | 1011.4 |
| 20260507033057 | 15 | 237 | 8.0 | 17.7 | 0.00 | 0.00 | 0.00 | 23 | 1011.5 |
| 20260507031556 | 15 | 246 | 8.0 | 19.3 | 0.00 | 0.00 | 0.00 | 22 | 1011.2 |
| 20260507030054 | 15 | 254 | 8.0 | 12.9 | 0.00 | 0.00 | 0.00 | 21 | 1011.0 |
| 20260507024550 | 16 | 240 | 6.4 | 14.5 | 0.00 | 0.00 | 0.00 | 21 | 1010.8 |
| 20260507023049 | 16 | 247 | 6.4 | 19.3 | 0.00 | 0.00 | 0.00 | 20 | 1010.6 |
| 20260507021547 | 17 | 259 | 6.4 | 14.5 | 0.00 | 0.00 | 0.00 | 20 | 1010.4 |
| 20260507020100 | 17 | 244 | 6.4 | 17.7 | 0.00 | 0.00 | 0.00 | 19 | 1010.3 |
| 20260507014547 | 18 | 228 | 6.4 | 20.9 | 0.00 | 0.00 | 0.00 | 19 | 1010.2 |
| 20260507013043 | 19 | 245 | 4.8 | 17.7 | 0.00 | 0.00 | 0.00 | 18 | 1010.2 |
| 20260507011542 | 19 | 266 | 8.0 | 16.1 | 0.00 | 0.00 | 0.00 | 18 | 1010.3 |
| 20260507010055 | 20 | 267 | 8.0 | 16.1 | 0.00 | 0.00 | 0.00 | 18 | 1010.2 |
| 20260507004537 | 20 | 212 | 8.0 | 20.9 | 0.00 | 0.00 | 0.00 | 17 | 1010.1 |
| 20260507003035 | 21 | 238 | 9.7 | 20.9 | 0.00 | 0.00 | 0.00 | 17 | 1009.9 |
| 20260507001534 | 22 | 185 | 8.0 | 17.7 | 0.00 | 0.00 | 0.00 | 17 | 1009.8 |
| 20260507000031 | 21 | 286 | 9.7 | 22.5 | 0.00 | 0.00 | 0.00 | 17 | 1009.7 |
| 20260506234531 | 22 | 272 | 6.4 | 12.9 | 0.00 | 0.00 | 0.00 | 17 | 1009.8 |
| 20260506233028 | 22 | 259 | 9.7 | 24.1 | 0.00 | 0.00 | 0.00 | 17 | 1009.7 |
| 20260506231526 | 22 | 217 | 6.4 | 22.5 | 0.00 | 0.00 | 0.00 | 18 | 1009.9 |
| 20260506230027 | 22 | 193 | 8.0 | 17.7 | 0.00 | 0.00 | 0.00 | 17 | 1009.8 |
| 20260506224521 | 22 | 274 | 8.0 | 20.9 | 0.00 | 0.00 | 0.00 | 17 | 1010.1 |
| 20260506223017 | 22 | 229 | 6.4 | 19.3 | 0.00 | 0.00 | 0.00 | 17 | 1010.3 |
| 20260506221514 | 22 | 237 | 8.0 | 19.3 | 0.00 | 0.00 | 0.00 | 18 | 1010.6 |
| 20260506220016 | 22 | 143 | 1.6 | 16.1 | 0.00 | 0.00 | 0.00 | 18 | 1010.7 |
| 20260506214509 | 22 | 282 | 6.4 | 16.1 | 0.00 | 0.00 | 0.00 | 18 | 1010.9 |
| 20260506213005 | 22 | 292 | 6.4 | 20.9 | 0.00 | 0.00 | 0.00 | 19 | 1011.0 |
| 20260506211601 | 22 | 267 | 6.4 | 14.5 | 0.00 | 0.00 | 0.00 | 19 | 1011.5 |
| 20260506210105 | 21 | 304 | 6.4 | 17.7 | 0.00 | 0.00 | 0.00 | 20 | 1011.5 |
| 20260506204604 | 21 | 288 | 1.6 | 6.4 | 0.00 | 0.00 | 0.00 | 20 | 1011.6 |
| 20260506203048 | 21 | 292 | 3.2 | 12.9 | 0.00 | 0.00 | 0.00 | 21 | 1011.8 |
| 20260506201548 | 20 | 73 | 4.8 | 11.3 | 0.00 | 0.00 | 0.00 | 21 | 1012.0 |
| 20260506200039 | 20 | 44 | 1.6 | 14.5 | 0.00 | 0.00 | 0.00 | 21 | 1012.1 |
| 20260506194533 | 20 | 353 | 3.2 | 12.9 | 0.00 | 0.00 | 0.00 | 22 | 1012.3 |
| 20260506193027 | 20 | 238 | 1.6 | 14.5 | 0.00 | 0.00 | 0.00 | 23 | 1012.5 |
| 20260506191523 | 18 | 32 | 8.0 | 19.3 | 0.00 | 0.00 | 0.00 | 23 | 1012.7 |
| 20260506190027 | 18 | 306 | 3.2 | 19.3 | 0.00 | 0.00 | 0.00 | 23 | 1012.9 |
| 20260506184521 | 18 | 323 | 4.8 | 14.5 | 0.00 | 0.00 | 0.00 | 24 | 1012.9 |
| 20260506183016 | 17 | 303 | 1.6 | 14.5 | 0.00 | 0.00 | 0.00 | 25 | 1012.9 |
| 20260506181514 | 17 | 327 | 6.4 | 16.1 | 0.00 | 0.00 | 0.00 | 26 | 1013.3 |
| 20260506180019 | 17 | 319 | 4.8 | 14.5 | 0.00 | 0.00 | 0.00 | 27 | 1013.2 |
| 20260506174516 | 17 | 251 | 4.8 | 16.1 | 0.00 | 0.00 | 0.00 | 28 | 1013.2 |
| 20260506173004 | 16 | 275 | 3.2 | 16.1 | 0.00 | 0.00 | 0.00 | 29 | 1013.3 |
| 20260506171501 | 16 | 312 | 3.2 | 11.3 | 0.00 | 0.00 | 0.00 | 30 | 1013.2 |
| 20260506170100 | 16 | 283 | 1.6 | 8.0 | 0.00 | 0.00 | 0.00 | 32 | 1013.3 |
| 20260506164553 | 15 | 262 | 3.2 | 11.3 | 0.00 | 0.00 | 0.00 | 33 | 1013.2 |
| 20260506163051 | 15 | 297 | 0.0 | 8.0 | 0.00 | 0.00 | 0.00 | 34 | 1013.1 |
| 20260506161549 | 15 | 268 | 3.2 | 8.0 | 0.00 | 0.00 | 0.00 | 36 | 1013.0 |
| 20260506160058 | 14 | 258 | 0.0 | 8.0 | 0.00 | 0.00 | 0.00 | 37 | 1013.2 |
| 20260506154541 | 13 | 328 | 1.6 | 9.7 | 0.00 | 0.00 | 0.00 | 38 | 1013.1 |
| 20260506153039 | 13 | 171 | 3.2 | 9.7 | 0.00 | 0.00 | 0.00 | 39 | 1013.0 |
| 20260506151541 | 13 | 259 | 1.6 | 8.0 | 0.00 | 0.00 | 0.00 | 41 | 1013.0 |
| 20260506150131 | 12 | 198 | 1.6 | 4.8 | 0.00 | 0.00 | 0.00 | 42 | 1013.2 |
| 20260506144528 | 12 | 160 | 1.6 | 6.4 | 0.00 | 0.00 | 0.00 | 42 | 1013.0 |
| 20260506143022 | 11 | 228 | 1.6 | 4.8 | 0.00 | 0.00 | 0.00 | 43 | 1012.9 |
| 20260506141518 | 11 | 281 | 0.0 | 6.4 | 0.00 | 0.00 | 0.00 | 43 | 1012.9 |
| 20260506140018 | 11 | 281 | 0.0 | 1.6 | 0.00 | 0.00 | 0.00 | 44 | 1012.8 |
| 20260506134511 | 10 | 110 | 0.0 | 1.6 | 0.00 | 0.00 | 0.00 | 44 | 1012.7 |
| 20260506133005 | 9 | 264 | 0.0 | 1.6 | 0.00 | 0.00 | 0.00 | 44 | 1012.7 |
| 20260506131617 | 7 | 264 | 0.0 | 0.0 | 0.00 | 0.00 | 0.00 | 43 | 1012.4 |
| 20260506130057 | 5 | 28 | 0.0 | 3.2 | 0.00 | 0.00 | 0.00 | 43 | 1012.0 |
| 20260506124552 | 6 | 281 | 0.0 | 4.8 | 0.00 | 0.00 | 0.00 | 42 | 1012.0 |
| 20260506123052 | 6 | 278 | 0.0 | 3.2 | 0.00 | 0.00 | 0.00 | 42 | 1011.8 |
| 20260506121547 | 6 | 274 | 0.0 | 3.2 | 0.00 | 0.00 | 0.00 | 41 | 1011.6 |
| 20260506120048 | 6 | 275 | 0.0 | 3.2 | 0.00 | 0.00 | 0.00 | 41 | 1011.4 |
| 20260506114543 | 6 | 266 | 0.0 | 4.8 | 0.00 | 0.00 | 0.00 | 40 | 1011.4 |
| 20260506113037 | 6 | 286 | 1.6 | 6.4 | 0.00 | 0.00 | 0.00 | 40 | 1011.5 |
| 20260506111534 | 6 | 255 | 1.6 | 6.4 | 0.00 | 0.00 | 0.00 | 40 | 1011.4 |
| 20260506110034 | 7 | 275 | 0.0 | 9.7 | 0.00 | 0.00 | 0.00 | 39 | 1011.4 |
| 20260506104531 | 7 | 268 | 1.6 | 6.4 | 0.00 | 0.00 | 0.00 | 39 | 1011.3 |
| 20260506103025 | 7 | 272 | 1.6 | 6.4 | 0.00 | 0.00 | 0.00 | 38 | 1011.2 |
| 20260506101521 | 6 | 247 | 1.6 | 9.7 | 0.00 | 0.00 | 0.00 | 38 | 1011.1 |
| 20260506100023 | 6 | 243 | 0.0 | 4.8 | 0.00 | 0.00 | 0.00 | 38 | 1011.0 |
| 20260506094514 | 6 | 238 | 1.6 | 6.4 | 0.00 | 0.00 | 0.00 | 37 | 1011.0 |
| 20260506093010 | 7 | 287 | 0.0 | 4.8 | 0.00 | 0.00 | 0.00 | 37 | 1011.0 |
| 20260506091508 | 7 | 274 | 1.6 | 8.0 | 0.00 | 0.00 | 0.00 | 37 | 1011.0 |
| 20260506090004 | 7 | 276 | 1.6 | 6.4 | 0.00 | 0.00 | 0.00 | 36 | 1010.9 |
| 20260506084503 | 7 | 257 | 1.6 | 6.4 | 0.00 | 0.00 | 0.00 | 36 | 1010.9 |
| 20260506083058 | 7 | 246 | 1.6 | 6.4 | 0.00 | 0.00 | 0.00 | 36 | 1010.9 |
| 20260506081555 | 7 | 251 | 0.0 | 6.4 | 0.00 | 0.00 | 0.00 | 35 | 1010.9 |
| 20260506073041 | 7 | 233 | 0.0 | 4.8 | 0.00 | 0.00 | 0.00 | 34 | 1010.9 |
| 20260506071538 | 7 | 260 | 1.6 | 6.4 | 0.00 | 0.00 | 0.00 | 34 | 1010.8 |
| 20260506061524 | 8 | 266 | 0.0 | 6.4 | 0.00 | 0.00 | 0.00 | 32 | 1010.2 |
| 20260506044511 | 8 | 262 | 0.0 | 1.6 | 0.00 | 0.00 | 0.00 | 29 | 1009.9 |
| 20260506043003 | 8 | 243 | 0.0 | 3.2 | 0.00 | 0.00 | 0.00 | 29 | 1009.8 |
| 20260506041605 | 9 | 243 | 0.0 | 4.8 | 0.00 | 0.00 | 0.00 | 29 | 1009.5 |